#timestamp,LO_Frequency,Hit 
1505476815.4,286047007.0,P
1505476835.2,286047000.3,N
1505476855.0,286046998.9,N
1505476855.9,286046998.9,N
1505476875.8,286046998.3,N
1505476895.6,286047000.7,N
1505476915.4,286047001.5,N
1505476935.2,286047002.1,N
1505476955.1,286047001.3,N
1505476956.0,286047001.3,N
1505476975.8,286047000.7,N
1505476995.6,286047001.4,N
1505477015.5,286047002.1,N
1505477035.3,286047003.3,N
1505477055.1,286046999.8,N
1505477075.9,286046997.0,N
1505477095.7,286046999.6,N
1505477115.5,286047000.5,N
1505477135.4,286047000.0,N
1505477155.2,286047003.0,N
1505477175.0,286047004.8,N
1505477175.9,286047004.8,N
1505477195.8,286047005.7,N
1505477215.6,286047006.7,N
1505477235.4,286047002.0,N
1505477255.3,286047001.9,N
1505477275.1,286047000.6,N
1505477295.8,286047002.8,N
1505477315.7,286047003.0,N
1505477335.5,286047002.4,N
1505477355.3,286046999.5,N
1505477375.2,286046999.4,N
1505477395.9,286047001.2,N
1505477415.7,286047001.1,N
1505477435.6,286046998.5,N
1505477455.4,286047002.4,N
1505477475.2,286046998.4,N
1505477495.1,286047002.6,N
1505477496.0,286047002.6,N
1505477515.8,286046998.1,N
1505477535.6,286046998.0,N
1505477555.5,286046999.6,N
1505477575.3,286046998.1,N
1505477595.1,286047004.1,N
1505477615.9,286046999.8,N
1505477635.7,286047002.7,N
1505477655.5,286046998.2,N
1505477675.3,286047002.7,N
1505477695.2,286047000.5,N
1505477715.0,286047000.0,N
1505477715.9,286047000.0,N
1505477735.7,286046999.8,N
1505477755.6,286047000.5,N
1505477775.4,286047001.0,N
1505477795.2,286046996.9,N
1505477815.1,286046997.5,N
1505477816.0,286046997.5,N
1505477835.8,286046999.5,N
1505477855.6,286046997.9,N
1505477875.5,286046992.7,P
1505477895.3,286046991.8,N
1505477915.1,286046995.8,N
1505477935.9,286046996.3,N
1505477955.7,286046996.4,N
1505477975.5,286046995.0,N
1505477995.4,286046999.1,N
1505478015.2,286046998.3,N
1505478035.0,286046999.1,N
1505478035.9,286046999.1,N
1505478055.8,286046997.0,N
1505478075.6,286046996.9,N
1505478095.4,286046996.8,N
1505478115.2,286046996.1,N
1505478135.1,286046997.2,N
1505478136.0,286046997.2,N
1505478155.8,286046995.9,N
1505478175.6,286046994.5,N
1505478195.5,286046996.8,N
1505478215.3,286046998.8,N
1505478235.1,286047002.1,N
1505478255.9,286047002.6,N
1505478275.7,286047003.7,N
1505478295.5,286047000.8,N
1505478315.4,286047003.0,N
1505478335.2,286046998.6,N
1505478355.0,286046997.5,N
1505478355.9,286046997.5,N
1505478375.8,286046998.4,N
1505478395.6,286046998.6,N
1505478415.4,286047001.7,N
1505478435.3,286047003.1,N
1505478455.1,286047000.3,N
1505478456.0,286047000.3,N
1505478475.8,286046999.6,N
1505478495.6,286046997.4,N
1505478515.5,286046999.1,N
1505478535.3,286046996.6,N
1505478555.1,286046997.5,N
1505478575.9,286046995.3,N
1505478595.7,286046993.7,N
1505478615.5,286046994.8,N
1505478635.4,286046992.5,N
1505478655.2,286046993.5,N
1505478675.0,286046999.6,N
1505478675.9,286046999.6,N
1505478695.8,286047000.6,N
1505478715.6,286046998.1,N
1505478735.4,286047002.4,N
1505478755.3,286046998.1,N
1505478775.1,286046996.9,N
1505478776.0,286046996.9,N
1505478795.8,286047001.0,N
1505478815.7,286047002.4,N
1505478835.5,286047001.6,N
1505478855.3,286047000.7,N
1505478875.1,286046998.9,N
1505478895.9,286047001.7,N
1505478915.7,286047000.2,N
1505478935.5,286046999.9,N
1505478955.4,286047002.1,N
1505478975.2,286047003.1,N
1505478995.0,286047002.0,N
1505478995.9,286047002.0,N
1505479015.8,286047001.0,N
1505479035.6,286046996.7,N
1505479055.4,286047000.0,N
1505479075.3,286046997.4,N
1505479095.1,286046995.2,N
1505479096.0,286046995.2,N
1505479115.8,286046996.3,N
1505479135.7,286046996.9,N
1505479155.5,286046994.9,N
1505479175.3,286046996.7,N
1505479195.2,286046999.5,N
1505479215.9,286046996.9,N
1505479235.7,286046997.4,N
1505479255.6,286046997.0,N
1505479275.4,286047002.6,N
1505479295.2,286046996.5,N
1505479315.0,286047001.0,N
1505479316.0,286047001.0,N
1505479335.8,286047000.3,N
1505479355.6,286047002.6,N
1505479375.4,286047000.1,N
1505479395.3,286047002.4,N
1505479415.1,286047002.5,N
1505479435.8,286047003.3,N
1505479455.7,286047001.5,N
1505479475.5,286046998.4,N
1505479495.3,286047003.1,N
1505479515.2,286047005.7,N
1505479535.9,286047003.6,N
1505479555.7,286047004.2,N
1505479575.6,286047004.4,N
1505479595.4,286047004.8,N
1505479615.2,286047001.0,N
1505479635.1,286047000.2,N
1505479636.0,286047000.2,N
1505479655.8,286047000.4,N
1505479675.6,286047001.9,N
1505479695.5,286046998.8,N
1505479715.3,286046995.8,N
1505479735.1,286046999.4,N
1505479755.8,286047000.6,N
1505479775.7,286047002.0,N
1505479795.5,286046999.7,N
1505479815.3,286047000.2,N
1505479835.2,286046997.1,N
1505479855.0,286046995.1,N
1505479855.9,286046995.1,N
1505479875.7,286046997.1,N
1505479895.6,286047000.7,N
1505479915.4,286047000.7,N
1505479935.2,286046997.3,N
1505479955.1,286046997.0,N
1505479956.0,286046997.0,N
1505479975.8,286046994.7,N
1505479995.6,286046992.6,N
1505480015.5,286046991.7,N
1505480035.3,286046996.4,N
1505480055.1,286046994.9,N
1505480075.9,286046995.4,N
1505480095.7,286046996.9,N
1505480115.5,286046998.3,N
1505480135.4,286046997.2,N
1505480155.2,286046999.6,N
1505480175.0,286046999.4,N
1505480175.9,286046999.4,N
1505480195.7,286046997.5,N
1505480215.6,286046999.0,N
1505480235.4,286047000.9,N
1505480255.2,286046996.9,N
1505480275.1,286047000.7,N
1505480276.0,286047000.7,N
1505480295.8,286046998.9,N
1505480315.6,286046995.2,N
1505480335.5,286046996.5,N
1505480355.3,286046998.7,N
1505480375.1,286046997.2,N
1505480395.9,286046997.7,N
